Location: Horowhenua
(40.7500°S, 175.3333°E)
Time: 05:12:29
(UTC+00:00)

Cosmos 1538 Rocket - Pass Details

Date: 28 January 2023
Orbit: 750 x 792 km, 74.0° (Epoch: 01 April)

Event Time Altitude Azimuth Distance (km) Brightness Sun altitude
Exits shadow 14:10:58 70° 254° (WSW) 854 4.1 -26.7°
Maximum altitude 14:11:01 70° 250° (WSW) 854 4.1 -26.7°
Drops below altitude 10° 14:16:28 10° 165° (SSE) 2,388 7.5 -26.2°
Sets 14:18:54 0° 162° (SSE) 3,320 8.6 -26.0°
